Tracking 31027 objects as of 19-Jul-2025
HD Live streaming from Space Station
objects crossing your sky now

CZ-6A DEB

Track CZ-6A DEB now!
10-day predictions


NORAD ID: 54267
Int'l Code: 2022-151J
Perigee: 684.7 km
Apogee: 813.7 km
Inclination: 98.8 °
Period: 99.7 minutes
Semi major axis: 7120 km
RCS: Unknown
Launch date: November 11, 2022
Source: People's Republic of China (PRC)
Launch site: Taiyaun Space Center, China (TSC)

Note: This is SATELLITE DEBRIS
Your satellite tracking list
ATLAS 2A CENTAUR R/B
Track 1 satellite(s)




NASA's NSSDC Master Catalog

Two Line Element Set (TLE):
1 54267U 22151J   25199.64718577  .00002051  00000-0  57298-3 0  9998
2 54267  98.8326 257.4979 0090556 193.7292 166.1434 14.44985304140993
Source of the keplerian elements: AFSPC